Location: Moena
(46.3667°N, 11.6500°E)
Time: 07:42:35
(UTC+00:00)

DMSP B5D2-2 - Visible Passes

Search period start: 21 June 2021 00:00
Search period end: 01 July 2021 00:00
Orbit: 790 x 805 km, 98.3° (Epoch: 20 June)

Date Brightness Start Highest point End Pass type
(mag) Time Alt. Az. Time Alt. Az. Time Alt. Az.
21 Jun 6.6 19:43:43 10° N 19:48:02 27° WNW 19:52:21 10° WSW visible
23 Jun 7.3 20:30:37 10° NNW 20:32:36 12° NW 20:34:36 10° WNW visible
24 Jun 6.9 20:02:05 10° NNW 20:05:46 20° WNW 20:09:25 10° WSW visible
27 Jun 7.2 20:20:45 10° NNW 20:23:26 14° NW 20:26:06 10° W visible
28 Jun 6.9 19:52:33 10° NNW 19:56:33 23° WNW 20:00:31 10° WSW visible
30 Jun 7.6 20:40:41 10° NW 20:41:03 10° NW 20:41:25 10° NW visible
